[[{"header":{"parameterUnit":"m.s-1","parameterCategory":1,"la1":30.2991,"la2":30.254,"lo1":-89.0895,"lo2":-89.0444,"dy":0.0017,"dx":0.0017,"nx":28,"ny":28,"refTime":"2024-03-25T09:00:00:Z","depth":0,"parameterNumber":2,"parameterNumberName":"U-component_of_WINDS"},"data":[0,0,0,0,0,0,0,0,0,0,0,0,0,0,0,0,0,0,0,0,0,0,0,0,0,0,0,0,0,0,0,0,0,0,0,0,0,0,0,0,0,0,0,0,0,0,0,0,0,0,0,0,0,0,0,0,0,0,2.1635,2.1636,0,2.1711,2.1712,2.1713,2.17,2.1699,2.1698,2.1697,2.1778,2.1781,2.1784,0,0,0,0,0,0,0,0,0,0,0,0,0,2.1486,2.1488,2.1635,2.1636,2.1637,2.1711,2.1712,2.1713,2.1701,2.1699,2.1698,2.1696,2.1776,2.178,2.1784,0,0,0,0,0,0,0,0,0,0,0,0,0,2.1555,2.1489,2.1635,2.164,2.1641,2.171,2.1712,2.1713,2.1701,2.1699,2.1697,2.1695,2.1775,2.178,2.1785,2.1855,0,0,2.1801,2.1803,0,0,0,0,0,0,0,0,2.1551,2.156,2.1638,2.164,2.1641,2.1694,2.1689,2.1761,2.1702,2.1678,2.1697,2.1694,2.1752,2.1759,2.1777,2.1859,2.1863,2.1801,2.1804,2.1806,2.1808,0,0,0,0,0,0,0,2.1546,2.1557,2.1665,2.1639,2.1641,2.164,2.1648,2.1702,2.1725,2.168,2.168,2.1688,2.1752,2.1772,2.1779,2.1864,2.1801,2.1805,2.1808,2.181,2.2011,2.2013,0,0,0,0,0,0,2.1539,2.1553,2.1663,2.1668,2.159,2.1644,2.1653,2.1679,2.1725,2.173,2.169,2.1688,2.1765,2.1773,2.1782,2.1869,2.1806,2.1811,2.1814,2.2009,2.2011,2.2014,0,0,0,0,0,0,2.1536,2.1549,2.166,2.161,2.1624,2.1649,2.1679,2.1682,2.1702,2.1732,2.1736,2.1706,2.1763,2.1775,2.1838,2.1872,2.1813,2.1818,2.2006,2.2009,2.2013,2.2044,0,0,0,0,0,0,2.1532,2.1548,2.1574,2.1611,2.1627,2.1713,2.1681,2.1685,2.171,2.1708,2.1748,2.1753,2.1763,2.183,2.1843,2.1878,2.1822,2.2003,2.2007,2.2011,2.204,2.2048,2.2055,0,0,0,0,0,2.1527,2.158,2.1575,2.1589,2.1659,2.1715,2.1724,2.1733,2.1713,2.174,2.176,2.1752,2.1866,2.1837,2.1851,2.1888,2.2001,2.2006,2.2011,2.2037,2.2047,2.2055,0,0,0,0,0,0,2.1547,2.1585,2.158,2.1647,2.1678,2.1713,2.1747,2.1743,2.1781,2.1778,2.1788,2.1798,2.1862,2.1881,2.1848,2.196,2.1931,2.1939,2.1945,2.1955,2.1962,2.1957,2.1826,0,0,0,0,0,2.1559,2.16,2.1631,2.1687,2.1703,2.1722,2.1747,2.1751,2.1784,2.1798,2.1822,2.1856,2.1899,2.1928,2.1969,2.2042,2.2053,2.2075,2.2082,2.2088,2.2096,2.2139,2.215,2.2031,2.2031,2.2031,0,0,2.1585,2.1611,2.1636,2.1692,2.1716,2.1761,2.1734,2.1781,2.1814,2.1805,2.1867,2.1886,2.1924,2.1993,2.2025,2.2011,2.2131,2.2095,2.2099,2.2104,2.2145,2.2157,2.2167,2.2034,2.2034,2.2033,0,0,2.1655,2.1678,2.1728,2.1753,2.179,2.1803,2.1815,2.1852,2.1864,2.1925,2.1921,2.1961,2.2035,2.2063,2.2088,2.217,2.2165,2.2183,2.2223,2.2265,2.2274,2.2283,2.2315,2.2326,2.219,2.219,2.219,0,2.1683,2.1748,2.1754,2.1803,2.1829,2.1822,2.1874,2.1899,2.1948,2.1967,2.195,2.2045,2.207,2.2147,2.2167,2.2186,2.2202,2.218,2.2272,2.228,2.2289,2.2319,2.2331,2.2193,2.2192,2.2192,2.2192,0,2.1782,2.1827,2.1863,2.1911,2.1941,2.1991,2.2007,2.2036,2.2038,2.2053,2.2118,2.2147,2.2196,2.2214,2.2217,2.2293,2.2283,2.2269,2.224,2.2302,2.2331,2.2343,2.2196,2.2195,2.2194,2.2194,0,0,2.1868,2.1919,2.1932,2.1955,2.1996,2.2032,2.2083,2.2129,2.2156,2.219,2.2235,2.2299,2.2286,2.2314,2.2319,2.2355,2.2422,2.2337,2.2339,2.2355,2.2511,2.2523,2.2537,2.2419,2.2421,2.2423,2.2509,0,2.1944,2.2032,2.204,2.212,2.2164,2.2158,2.2203,2.2234,2.225,2.229,2.2308,2.2354,2.2333,2.235,2.2385,2.2407,2.2455,2.24,2.2463,2.2465,2.2456,2.2551,2.2564,2.2644,2.252,2.2522,2.2523,0,2.2044,2.2082,2.2166,2.2203,2.2222,2.2261,2.2306,2.2344,2.238,2.2389,2.2421,2.2422,2.2476,2.2444,2.2521,2.2484,2.251,2.2524,2.2528,2.2536,2.2499,2.2565,2.2669,2.2682,2.2541,2.254,2.2538,0,2.2102,2.2173,2.2233,2.2253,2.2297,2.2325,2.2345,2.2379,2.2408,2.2447,2.2466,2.2512,2.2537,2.2573,2.2588,2.2562,2.2665,2.2633,2.2677,2.2676,2.27,2.2699,2.2813,2.2713,2.2712,2.2712,2.2712,0,2.2187,2.224,2.226,2.2298,2.2357,2.2367,2.2426,2.2445,2.2475,2.2518,2.2516,2.2556,2.2571,2.2614,2.2626,2.269,2.27,2.2711,2.2714,2.2713,2.2712,2.2732,2.2728,2.2715,2.2715,2.2714,2.2713,0,2.2262,2.2277,2.2344,2.238,2.2391,2.2433,2.2465,2.2503,2.2518,2.2572,2.2585,2.261,2.2661,2.2678,2.274,2.2748,2.2823,2.282,2.2811,2.2812,2.2855,2.2852,2.2988,2.3008,2.2892,2.2893,2.2894,0,2.2317,2.2357,2.2398,2.2426,2.2447,2.2492,2.2521,2.2532,2.2563,2.2608,2.2641,2.2691,2.2732,2.2815,2.2839,2.2888,2.2887,2.2932,2.2895,2.2893,2.2891,2.289,2.2895,2.2939,2.2941,2.2941,2.2942,0,2.2413,2.2419,2.246,2.2505,2.254,2.2576,2.2611,2.2634,2.2651,2.2686,2.2738,2.277,2.2833,2.2884,2.2934,2.2956,2.2954,2.2953,2.2967,2.2967,2.2961,2.2968,2.2833,2.2951,2.295,2.2949,2.2949,2.2949,2.2482,2.2518,2.2553,2.26,2.2628,2.2661,2.2698,2.2718,2.2761,2.2813,2.2818,2.2875,2.2912,2.2978,2.3003,2.3049,2.3036,2.3055,2.306,2.3065,2.307,2.2952,2.3057,2.3057,2.3057,2.3057,2.3056,0,2.258,2.2603,2.2646,2.2695,2.2732,2.2724,2.2763,2.2795,2.2845,2.2879,2.292,2.2981,2.3031,2.306,2.311,2.3142,2.3142,2.3155,2.3154,2.316,2.3076,2.3061,2.3154,2.3154,2.3154,2.3154,2.3154,2.3154,2.2636,2.2699,2.2709,2.2786,2.2808,2.2864,2.2887,2.2918,2.2946,2.3014,2.3055,2.3073,2.3106,2.3159,2.3206,2.3213,2.3233,2.3248,2.3254,2.3176,2.3166,2.3156,2.3142,2.3251,2.3251,2.3335,2.3336,2.3336]},{"header":{"parameterUnit":"m.s-1","parameterCategory":1,"la1":30.2991,"la2":30.254,"lo1":-89.0895,"lo2":-89.0444,"dy":0.0017,"dx":0.0017,"nx":28,"ny":28,"refTime":"2024-03-25T09:00:00:Z","depth":0,"parameterNumber":3,"parameterNumberName":"V-component_of_WINDS"},"data":[0,0,0,0,0,0,0,0,0,0,0,0,0,0,0,0,0,0,0,0,0,0,0,0,0,0,0,0,0,0,0,0,0,0,0,0,0,0,0,0,0,0,0,0,0,0,0,0,0,0,0,0,0,0,0,0,0,0,-0.3677,-0.3677,0,-0.3695,-0.3695,-0.3695,-0.3707,-0.3707,-0.3707,-0.3707,-0.3727,-0.3728,-0.3728,0,0,0,0,0,0,0,0,0,0,0,0,0,-0.3654,-0.3655,-0.3677,-0.3677,-0.3677,-0.3695,-0.3695,-0.3695,-0.3707,-0.3707,-0.3707,-0.3707,-0.3727,-0.3728,-0.3728,0,0,0,0,0,0,0,0,0,0,0,0,0,-0.3667,-0.3655,-0.3677,-0.3685,-0.3686,-0.3695,-0.3695,-0.3695,-0.3707,-0.3707,-0.3707,-0.3707,-0.3727,-0.3728,-0.3728,-0.3731,0,0,-0.373,-0.3731,0,0,0,0,0,0,0,0,-0.3667,-0.3668,-0.3684,-0.3685,-0.3686,-0.3699,-0.3695,-0.3707,-0.3707,-0.3699,-0.3707,-0.3707,-0.3718,-0.3719,-0.3722,-0.3732,-0.3732,-0.373,-0.3731,-0.3731,-0.3731,0,0,0,0,0,0,0,-0.3666,-0.3668,-0.3684,-0.3684,-0.3685,-0.3689,-0.369,-0.3697,-0.3708,-0.37,-0.3701,-0.3702,-0.3718,-0.3722,-0.3723,-0.3733,-0.373,-0.3731,-0.3732,-0.3732,-0.3746,-0.3746,0,0,0,0,0,0,-0.3663,-0.3667,-0.3683,-0.3685,-0.3676,-0.3689,-0.3691,-0.3694,-0.3708,-0.371,-0.3702,-0.3703,-0.372,-0.3722,-0.3724,-0.3728,-0.3731,-0.3732,-0.3732,-0.3746,-0.3746,-0.3746,0,0,0,0,0,0,-0.3663,-0.3665,-0.3683,-0.3676,-0.3678,-0.3689,-0.3693,-0.3695,-0.3698,-0.371,-0.3712,-0.3704,-0.3721,-0.3723,-0.3729,-0.3729,-0.3732,-0.3733,-0.3746,-0.3746,-0.3746,-0.3736,0,0,0,0,0,0,-0.3662,-0.3664,-0.3665,-0.3676,-0.3679,-0.3687,-0.3693,-0.3695,-0.3699,-0.37,-0.3711,-0.3713,-0.3721,-0.3728,-0.373,-0.373,-0.3733,-0.3746,-0.3746,-0.3746,-0.3736,-0.3736,-0.3735,0,0,0,0,0,-0.3661,-0.3662,-0.3665,-0.3667,-0.368,-0.3687,-0.3689,-0.3697,-0.3699,-0.37,-0.3708,-0.3713,-0.3728,-0.3728,-0.3731,-0.3731,-0.3746,-0.3746,-0.3746,-0.3737,-0.3736,-0.3735,0,0,0,0,0,0,-0.3651,-0.3663,-0.3667,-0.3671,-0.3678,-0.3689,-0.369,-0.3695,-0.3702,-0.3703,-0.3713,-0.3715,-0.3721,-0.3727,-0.3726,-0.3734,-0.3738,-0.3738,-0.373,-0.373,-0.3729,-0.3727,-0.3734,0,0,0,0,0,-0.3649,-0.3653,-0.3664,-0.3667,-0.367,-0.3679,-0.3683,-0.3689,-0.3696,-0.3699,-0.3707,-0.3715,-0.3722,-0.3726,-0.3733,-0.3737,-0.374,-0.3739,-0.3738,-0.3737,-0.3738,-0.3741,-0.3741,-0.3745,-0.3745,-0.3745,0,0,-0.3646,-0.3653,-0.3655,-0.3665,-0.3671,-0.3676,-0.3682,-0.3687,-0.3691,-0.37,-0.3707,-0.3713,-0.3722,-0.3728,-0.3731,-0.3733,-0.3737,-0.3737,-0.3737,-0.3737,-0.3741,-0.3741,-0.374,-0.3745,-0.3745,-0.3745,0,0,-0.3641,-0.3647,-0.365,-0.3656,-0.3665,-0.3671,-0.3672,-0.3682,-0.3686,-0.3693,-0.37,-0.3706,-0.3717,-0.3723,-0.3728,-0.3727,-0.3733,-0.3729,-0.3725,-0.3729,-0.3728,-0.3728,-0.3728,-0.3728,-0.3729,-0.3729,-0.3729,0,-0.3636,-0.3643,-0.3651,-0.3655,-0.366,-0.3668,-0.3672,-0.3677,-0.3688,-0.3691,-0.3693,-0.3708,-0.3715,-0.3722,-0.3722,-0.3725,-0.3727,-0.3728,-0.3727,-0.3727,-0.3727,-0.3727,-0.3727,-0.3729,-0.3729,-0.3729,-0.3729,0,-0.3636,-0.3641,-0.3642,-0.3652,-0.3657,-0.3661,-0.367,-0.3674,-0.3679,-0.3685,-0.3692,-0.3701,-0.371,-0.3712,-0.3717,-0.372,-0.3722,-0.3725,-0.3729,-0.3726,-0.3727,-0.3727,-0.3728,-0.3728,-0.3728,-0.3728,0,0,-0.3626,-0.364,-0.3641,-0.3645,-0.3656,-0.366,-0.3665,-0.3673,-0.3676,-0.3684,-0.3688,-0.3698,-0.3701,-0.3707,-0.3713,-0.3716,-0.3715,-0.372,-0.372,-0.3719,-0.372,-0.3717,-0.3717,-0.3719,-0.3719,-0.3719,-0.3719,0,-0.3624,-0.3632,-0.3639,-0.3645,-0.365,-0.3658,-0.3663,-0.367,-0.3676,-0.3682,-0.3689,-0.3696,-0.37,-0.3703,-0.3707,-0.3715,-0.3716,-0.3715,-0.3724,-0.3724,-0.3722,-0.3717,-0.3714,-0.3714,-0.372,-0.372,-0.372,0,-0.3622,-0.3629,-0.3635,-0.3645,-0.3648,-0.3651,-0.3659,-0.3664,-0.3673,-0.3678,-0.3684,-0.369,-0.3697,-0.37,-0.3709,-0.3708,-0.3712,-0.3717,-0.3717,-0.3719,-0.3722,-0.3719,-0.3714,-0.3714,-0.372,-0.372,-0.372,0,-0.3615,-0.3625,-0.363,-0.3634,-0.3646,-0.3648,-0.3654,-0.3662,-0.3667,-0.3675,-0.3678,-0.3686,-0.3691,-0.3698,-0.3707,-0.3708,-0.3715,-0.3719,-0.372,-0.3719,-0.3721,-0.3721,-0.3717,-0.3723,-0.3723,-0.3723,-0.3723,0,-0.3612,-0.3615,-0.3627,-0.363,-0.3635,-0.3643,-0.3648,-0.3654,-0.3662,-0.3667,-0.3675,-0.3679,-0.3691,-0.3697,-0.3704,-0.3711,-0.3713,-0.3718,-0.3719,-0.3717,-0.3716,-0.372,-0.372,-0.3723,-0.3723,-0.3723,-0.3723,0,-0.3604,-0.3612,-0.3618,-0.3629,-0.3632,-0.3635,-0.3645,-0.3648,-0.3655,-0.3661,-0.3663,-0.3674,-0.3682,-0.3692,-0.3703,-0.3708,-0.3714,-0.3717,-0.3711,-0.3712,-0.3712,-0.3712,-0.3711,-0.3712,-0.3717,-0.3717,-0.3717,0,-0.3602,-0.3605,-0.3616,-0.3619,-0.3624,-0.363,-0.3635,-0.3644,-0.3648,-0.3659,-0.3661,-0.367,-0.3677,-0.369,-0.3699,-0.3708,-0.3711,-0.371,-0.3712,-0.371,-0.3711,-0.3711,-0.3712,-0.3709,-0.3709,-0.3709,-0.3709,0,-0.3597,-0.3601,-0.3607,-0.3614,-0.3619,-0.3626,-0.3633,-0.3635,-0.3646,-0.3651,-0.3659,-0.3664,-0.3676,-0.3684,-0.3694,-0.3701,-0.3707,-0.3708,-0.3709,-0.3706,-0.3703,-0.3705,-0.3709,-0.3708,-0.3708,-0.3708,-0.3708,-0.3708,-0.3592,-0.3595,-0.3604,-0.361,-0.3616,-0.3622,-0.3626,-0.3634,-0.364,-0.3649,-0.3655,-0.3662,-0.3672,-0.3686,-0.3692,-0.3699,-0.3701,-0.3702,-0.3703,-0.3703,-0.3702,-0.3702,-0.3701,-0.3701,-0.3701,-0.3701,-0.3701,0,-0.3588,-0.3594,-0.36,-0.3609,-0.3614,-0.3619,-0.3627,-0.3631,-0.3638,-0.3646,-0.3652,-0.3662,-0.367,-0.368,-0.369,-0.3693,-0.3696,-0.3695,-0.3695,-0.3697,-0.3699,-0.3698,-0.3693,-0.3693,-0.3693,-0.3693,-0.3693,-0.3693,-0.3587,-0.3592,-0.3597,-0.3606,-0.3611,-0.3619,-0.3623,-0.3629,-0.3635,-0.3645,-0.3652,-0.3658,-0.3667,-0.3677,-0.3686,-0.3688,-0.3692,-0.369,-0.3694,-0.3696,-0.3697,-0.3697,-0.3696,-0.369,-0.369,-0.3691,-0.3691,-0.3691]}]]